Weather History for Kimball, NE

Change the Weather History Date:

Tuesday, June 11, 2013

  Actual Average (KSNY) Record (KSNY)
Temperature  
Mean Temperature 75 °F 66 °F  
Max Temperature 93 °F 80 °F 96 °F (1956)
Min Temperature 57 °F 52 °F 36 °F (1985)
Degree Days  
Heating Degree Days 0 2  
Month to date heating degree days 37  
Since 1 June heating degree days 37  
Since 1 July heating degree days 6199  
Cooling Degree Days 10 3  
Month to date cooling degree days 27  
Year to date cooling degree days 49  
Since 1 June cooling degree days 27  
Growing Degree Days 25 (Base 50)    
Moisture  
Dew Point 51 °F    
Average Humidity 46    
Maximum Humidity 82    
Minimum Humidity 22    
Precipitation  
Precipitation 0.00 in 0.12 in 4.54 in (1970)
Month to date precipitation 1.22  
Year to date precipitation 7.98  
Sea Level Pressure  
Sea Level Pressure 29.87 in    
Wind  
Wind Speed 7 mph (NE)    
Max Wind Speed 17 mph    
Max Gust Speed 24 mph    
Visibility 10 miles    
Events Thunderstorm    
T = Trace of Precipitation, MM = Missing Value Source: NWS Daily Summary

Daily Weather History Graph

Daily Weather History Graph

Search for Another Location

Airport:

Trip Planner

Search our weather history database for the weather conditions in past years. The results will help you decide how hot, cold, wet, or windy it might be!

Date:

Astronomy

Jun. 11, 2013 Rise Set
Actual Time 6:21 AM CDT 9:27 PM CDT
Civil Twilight 5:47 AM CDT 10:01 PM CDT
Nautical Twilight 5:04 AM CDT 10:44 PM CDT
Astronomical Twilight 4:14 AM CDT 11:35 PM CDT
Moon 9:07 AM CDT (6/11) 11:30 PM CDT (6/11)
Length of Visible Light 16h 13m
Length of Day
15h 06m
Waxing Crescent, 8% of the Moon is Illuminated
Jun 11
Waxing Crescent
Jun 16
First Quarter
Jun 23
Full
Jun 29
Last Quarter
Jul 8
New

Hourly Weather History & Observations

Time (CDT) Temp. Heat Index Dew Point Humidity Pressure Visibility Wind Dir Wind Speed Gust Speed Precip Events Conditions
12:15 AM 69.6 °F - 45.3 °F 42% 29.90 in 10.0 mi NE 9.2 mph - N/A   Clear
12:35 AM 69.1 °F - 45.3 °F 42% 29.91 in 10.0 mi North 4.6 mph - N/A   Clear
12:55 AM 69.8 °F - 45.3 °F 41% 29.92 in 10.0 mi NE 5.8 mph - N/A Thunderstorm Thunderstorm
1:15 AM 71.4 °F - 43.2 °F 36% 29.90 in 10.0 mi Calm Calm - N/A   Clear
1:35 AM 68.9 °F - 43.5 °F 40% 29.89 in 10.0 mi ESE 4.6 mph - N/A   Clear
1:55 AM 66.6 °F - 44.4 °F 45% 29.89 in 10.0 mi East 5.8 mph - N/A   Clear
2:15 AM 67.1 °F - 46.2 °F 47% 29.89 in 10.0 mi East 6.9 mph - N/A   Clear
2:35 AM 68.7 °F - 48.2 °F 48% 29.89 in 10.0 mi ESE 9.2 mph - N/A   Clear
2:55 AM 67.5 °F - 49.5 °F 52% 29.88 in 10.0 mi ESE 10.4 mph - N/A   Clear
3:43 AM 64.4 °F - 51.8 °F 64% 29.88 in 10.0 mi SSE 8.1 mph - N/A   Clear
3:55 AM 64.2 °F - 51.3 °F 63% 29.88 in 10.0 mi SSE 9.2 mph - N/A   Clear
4:15 AM 62.8 °F - 52.0 °F 68% 29.87 in 10.0 mi SSE 5.8 mph - N/A   Clear
4:35 AM 62.1 °F - 53.4 °F 73% 29.86 in 10.0 mi South 8.1 mph - N/A   Clear
4:55 AM 60.4 °F - 52.9 °F 76% 29.86 in 10.0 mi SSE 5.8 mph - N/A   Clear
5:15 AM 61.0 °F - 53.1 °F 75% 29.86 in 10.0 mi South 5.8 mph - N/A   Clear
5:35 AM 58.3 °F - 52.3 °F 81% 29.87 in 10.0 mi NW 8.1 mph - N/A   Clear
5:55 AM 58.6 °F - 52.7 °F 81% 29.88 in 10.0 mi WNW 10.4 mph - N/A   Clear
6:15 AM 59.2 °F - 52.2 °F 78% 29.88 in 10.0 mi NW 6.9 mph - N/A   Clear
6:35 AM 57.6 °F - 51.8 °F 81% 29.89 in 10.0 mi NW 4.6 mph - N/A   Clear
6:55 AM 57.0 °F - 51.4 °F 82% 29.89 in 10.0 mi WNW 5.8 mph - N/A   Clear
7:15 AM 58.1 °F - 52.2 °F 81% 29.90 in 10.0 mi NNW 4.6 mph - N/A   Clear
7:35 AM 62.6 °F - 54.3 °F 74% 29.89 in 10.0 mi NNW 3.5 mph - N/A   Clear
7:55 AM 66.0 °F - 55.8 °F 69% 29.90 in 10.0 mi NNE 4.6 mph - N/A   Clear
8:15 AM 69.1 °F - 55.9 °F 63% 29.90 in 10.0 mi NNE 6.9 mph - N/A   Clear
8:35 AM 69.4 °F - 56.7 °F 64% 29.89 in 10.0 mi ENE 4.6 mph - N/A   Clear
8:55 AM 69.3 °F - 56.8 °F 65% 29.89 in 10.0 mi ENE 6.9 mph - N/A   Clear
9:15 AM 71.1 °F - 57.6 °F 62% 29.89 in 10.0 mi NE 3.5 mph - N/A   Clear
9:35 AM 71.8 °F - 58.1 °F 62% 29.89 in 10.0 mi Calm Calm - N/A   Clear
9:55 AM 73.9 °F - 58.1 °F 58% 29.90 in 10.0 mi NNW 5.8 mph - N/A   Clear
10:15 AM 74.5 °F - 57.2 °F 55% 29.90 in 10.0 mi Calm Calm - N/A   Clear
10:35 AM 76.3 °F - 58.1 °F 53% 29.89 in 10.0 mi Calm Calm - N/A   Clear
10:55 AM 78.3 °F - 57.2 °F 48% 29.89 in 10.0 mi Calm Calm - N/A   Clear
11:15 AM 79.7 °F - 54.1 °F 41% 29.89 in 10.0 mi Calm Calm - N/A   Clear
11:35 AM 81.1 °F 80.8 °F 54.7 °F 40% 29.88 in 10.0 mi NNE 3.5 mph - N/A   Clear
11:55 AM 83.1 °F 82.1 °F 54.1 °F 37% 29.88 in 10.0 mi Calm Calm - N/A   Clear
12:15 PM 84.7 °F - 52.9 °F 33% 29.88 in 10.0 mi Calm Calm - N/A   Clear
12:35 PM 85.5 °F - 50.4 °F 30% 29.88 in 10.0 mi North 4.6 mph - N/A   Clear
12:55 PM 87.6 °F - 50.2 °F 27% 29.87 in 10.0 mi NNE 4.6 mph - N/A   Clear
1:15 PM 88.2 °F - 46.6 °F 24% 29.86 in 10.0 mi NE 4.6 mph - N/A   Clear
1:35 PM 89.4 °F - 48.4 °F 24% 29.85 in 10.0 mi East 5.8 mph - N/A   Clear
1:55 PM 91.2 °F - 50.7 °F 25% 29.85 in 10.0 mi SE 5.8 mph - N/A   Clear
2:15 PM 91.9 °F - 48.9 °F 23% 29.84 in 10.0 mi East 8.1 mph - N/A   Clear
2:35 PM 93.4 °F - 50.5 °F 23% 29.83 in 10.0 mi East 13.8 mph 17.3 mph N/A   Clear
2:55 PM 92.7 °F - 52.9 °F 26% 29.82 in 10.0 mi East 13.8 mph 24.2 mph N/A   Clear
3:15 PM 89.4 °F - 52.3 °F 28% 29.81 in 10.0 mi East 15.0 mph 18.4 mph N/A   Clear
3:35 PM 91.4 °F - 52.2 °F 26% 29.80 in 10.0 mi East 15.0 mph 20.7 mph N/A   Clear
3:55 PM 90.3 °F - 50.5 °F 26% 29.80 in 10.0 mi NE 16.1 mph - N/A   Scattered Clouds
4:15 PM 92.1 °F - 50.4 °F 24% 29.80 in 10.0 mi East 17.3 mph 20.7 mph N/A   Scattered Clouds
4:35 PM 91.0 °F - 49.3 °F 24% 29.80 in 10.0 mi ENE 13.8 mph - N/A   Clear
4:55 PM 92.1 °F - 48.7 °F 23% 29.80 in 10.0 mi East 16.1 mph 21.9 mph N/A   Clear
5:15 PM 91.0 °F - 47.3 °F 22% 29.80 in 10.0 mi ENE 16.1 mph - N/A   Clear
5:35 PM 89.1 °F - 46.8 °F 23% 29.80 in 10.0 mi ENE 11.5 mph - N/A   Clear
5:55 PM 89.6 °F - 48.0 °F 24% 29.80 in 10.0 mi NE 13.8 mph - N/A   Clear
6:15 PM 88.3 °F - 47.7 °F 24% 29.80 in 10.0 mi East 11.5 mph 17.3 mph N/A   Clear
6:35 PM 88.7 °F - 50.9 °F 27% 29.81 in 10.0 mi ENE 13.8 mph - N/A   Clear
6:55 PM 86.9 °F - 50.5 °F 28% 29.80 in 10.0 mi ENE 11.5 mph - N/A   Clear
7:15 PM 85.3 °F - 51.1 °F 31% 29.80 in 10.0 mi ENE 11.5 mph - N/A   Clear
7:35 PM 83.7 °F - 52.3 °F 34% 29.81 in 10.0 mi East 6.9 mph - N/A   Clear
7:55 PM 81.5 °F 81.0 °F 54.7 °F 40% 29.81 in 10.0 mi ENE 4.6 mph - N/A   Clear
8:15 PM 79.5 °F - 55.4 °F 43% 29.83 in 10.0 mi NE 3.5 mph - N/A   Clear
8:35 PM 78.4 °F - 56.5 °F 47% 29.83 in 10.0 mi NE 4.6 mph - N/A   Clear
8:55 PM 77.9 °F - 57.2 °F 49% 29.84 in 10.0 mi ENE 5.8 mph - N/A   Clear
9:15 PM 77.9 °F - 57.0 °F 48% 29.85 in 10.0 mi NNE 3.5 mph - N/A   Clear
9:35 PM 75.2 °F - 57.6 °F 54% 29.86 in 10.0 mi NNW 3.5 mph - N/A   Clear
9:55 PM 71.2 °F - 57.6 °F 62% 29.88 in 10.0 mi Calm Calm - N/A   Clear
10:15 PM 70.9 °F - 57.2 °F 62% 29.89 in 10.0 mi West 8.1 mph - N/A   Clear
10:35 PM 70.9 °F - 56.3 °F 60% 29.90 in 10.0 mi NW 5.8 mph - N/A   Clear
10:55 PM 73.0 °F - 53.1 °F 49% 29.92 in 10.0 mi West 11.5 mph - N/A   Clear
11:15 PM 73.0 °F - 41.2 °F 32% 29.93 in 10.0 mi WNW 6.9 mph - N/A   Clear
11:35 PM 68.7 °F - 37.8 °F 32% 29.95 in 10.0 mi North 6.9 mph - N/A   Clear
11:55 PM 73.0 °F - 35.2 °F 25% 29.95 in 10.0 mi North 11.5 mph - N/A   Clear